FW9330 Weather Reports


Display with metric or nautical units.
time (UTC)temp
F
wind
direction
speed
MPH
gust
MPH
rain 1hr
in
rain 24hr
in
rain mn
in
humidity
%
barometer
mb
20260504041811 40 270 0.0 0.0 0.00 0.00 0.00 74 1015.5
20260504041307 40 270 0.0 0.0 0.00 0.00 0.00 73 1015.4
20260504040803 40 263 0.0 0.0 0.00 0.00 0.00 72 1015.4
20260504040301 40 265 0.0 0.0 0.00 0.00 0.00 72 1015.3
20260504035756 40 270 0.0 0.0 0.00 0.00 0.00 74 1015.3
20260504035254 40 269 0.0 0.0 0.00 0.00 0.00 73 1015.5
20260504034751 40 276 1.0 1.0 0.00 0.00 0.00 72 1015.8
20260504034249 39 265 0.0 0.0 0.00 0.00 0.00 76 1015.5
20260504033746 39 265 0.0 0.0 0.00 0.00 0.00 76 1015.6
20260504033243 39 265 0.0 0.0 0.00 0.00 0.00 76 1015.4
20260504032740 40 263 0.0 0.0 0.00 0.00 0.00 75 1015.5
20260504032237 40 265 0.0 0.0 0.00 0.00 0.00 74 1015.7
20260504031734 40 265 0.0 0.0 0.00 0.00 0.00 74 1015.4
20260504031232 41 267 0.0 0.0 0.00 0.00 0.00 73 1015.5
20260504030727 41 268 0.0 0.0 0.00 0.00 0.00 72 1015.6
20260504030225 41 268 0.0 0.0 0.00 0.00 0.00 72 1015.7
20260504025721 41 268 0.0 0.0 0.00 0.00 0.00 70 1015.8
20260504025218 42 268 0.0 0.0 0.00 0.00 0.00 70 1015.5
20260504024715 42 266 0.0 0.0 0.00 0.00 0.00 69 1015.6
20260504024211 42 266 0.0 0.0 0.00 0.00 0.00 69 1015.6
20260504023708 42 260 1.0 1.0 0.00 0.00 0.00 69 1015.7
20260504023204 42 267 0.0 0.0 0.00 0.00 0.00 70 1015.7
20260504022700 42 268 0.0 0.0 0.00 0.00 0.00 69 1015.7
20260504022156 42 273 2.0 2.0 0.00 0.00 0.00 70 1015.8
20260504021654 42 263 0.0 0.0 0.00 0.00 0.00 71 1015.7
20260504021151 42 263 0.0 0.0 0.00 0.00 0.00 72 1015.7
20260504020648 42 263 0.0 0.0 0.00 0.00 0.00 70 1015.6
20260504020143 42 264 0.0 0.0 0.00 0.00 0.00 69 1016.0
20260504015641 42 263 0.0 0.0 0.00 0.00 0.00 68 1015.8
20260504015137 43 264 0.0 0.0 0.00 0.00 0.00 69 1015.7
20260504014632 43 264 0.0 0.0 0.00 0.00 0.00 68 1015.8
20260504014130 43 260 0.0 0.0 0.00 0.00 0.00 66 1015.5
20260504013628 43 261 0.0 0.0 0.00 0.00 0.00 68 1015.6
20260504013124 43 261 0.0 0.0 0.00 0.00 0.00 66 1015.6
20260504012622 44 260 0.0 0.0 0.00 0.00 0.00 66 1015.5
20260504012120 44 262 0.0 0.0 0.00 0.00 0.00 66 1015.6
20260504011616 44 263 0.0 0.0 0.00 0.00 0.00 66 1015.3
20260504011113 45 261 0.0 0.0 0.00 0.00 0.00 64 1015.4
20260504010608 45 260 0.0 0.0 0.00 0.00 0.00 63 1015.5
20260504010105 45 257 1.0 1.0 0.00 0.00 0.00 61 1015.4
20260504005601 45 252 0.0 0.0 0.00 0.00 0.00 62 1015.5
20260504005059 46 264 0.0 0.0 0.00 0.00 0.00 61 1015.5
20260504004556 47 262 0.0 0.0 0.00 0.00 0.00 60 1015.5
20260504004053 47 260 0.0 0.0 0.00 0.00 0.00 59 1015.5
20260504003549 48 267 0.0 0.0 0.00 0.00 0.00 57 1015.3
20260504003046 48 267 1.0 1.0 0.00 0.00 0.00 55 1015.4
20260504002543 48 275 1.0 1.0 0.00 0.00 0.00 55 1015.4
20260504002041 48 275 0.0 1.0 0.00 0.00 0.00 56 1015.5
20260504001538 48 269 1.0 1.0 0.00 0.00 0.00 54 1015.4
20260504001034 49 204 2.0 3.0 0.00 0.00 0.00 54 1015.2
20260504000531 49 245 1.0 1.0 0.00 0.00 0.00 54 1015.2
20260504000029 49 249 1.0 2.0 0.00 0.00 0.00 53 1015.2
20260503235527 49 270 1.0 2.0 0.00 0.00 0.00 53 1015.1
20260503235023 49 277 1.0 2.0 0.00 0.00 0.00 52 1015.3
20260503234521 50 177 2.0 3.0 0.00 0.00 0.00 53 1015.3
20260503234019 50 187 3.0 5.0 0.00 0.00 0.00 52 1015.3
20260503233515 50 186 3.0 3.0 0.00 0.00 0.00 51 1015.1
20260503233011 50 277 3.0 5.0 0.00 0.00 0.00 51 1015.1
20260503232509 50 273 1.0 2.0 0.00 0.00 0.00 51 1015.0
20260503232006 51 280 0.0 1.0 0.00 0.00 0.00 50 1015.0
20260503231504 50 282 3.0 5.0 0.00 0.00 0.00 50 1015.0
20260503231000 50 266 1.0 1.0 0.00 0.00 0.00 52 1015.2
20260503230457 51 260 2.0 2.0 0.00 0.00 0.00 50 1015.2
20260503225954 51 206 3.0 3.0 0.00 0.00 0.00 50 1015.3
20260503225451 52 265 2.0 3.0 0.00 0.00 0.00 49 1015.3
20260503224946 52 268 2.0 2.0 0.00 0.00 0.00 49 1015.2
20260503224444 51 274 5.0 7.0 0.00 0.00 0.00 49 1015.4
20260503223941 51 267 3.0 7.0 0.00 0.00 0.00 49 1015.4
20260503223439 52 276 1.0 1.0 0.00 0.00 0.00 48 1015.3
20260503222934 52 251 2.0 2.0 0.00 0.00 0.00 48 1015.3
20260503222433 53 227 4.0 5.0 0.00 0.00 0.00 46 1015.2
20260503221931 54 284 1.0 2.0 0.00 0.00 0.00 45 1015.1
20260503221429 54 283 4.0 6.0 0.00 0.00 0.00 46 1015.3
20260503220926 53 269 1.0 2.0 0.00 0.00 0.00 47 1015.2
20260503220422 54 194 3.0 3.0 0.00 0.00 0.00 46 1015.2
20260503215919 54 270 1.0 2.0 0.00 0.00 0.00 47 1015.3
20260503215416 53 253 2.0 2.0 0.00 0.00 0.00 47 1015.2
20260503214914 54 211 3.0 5.0 0.00 0.00 0.00 46 1015.1
20260503214411 53 269 2.0 2.0 0.00 0.00 0.00 48 1015.4
20260503213908 53 231 5.0 7.0 0.00 0.00 0.00 46 1015.4
20260503213406 53 272 2.0 2.0 0.00 0.00 0.00 46 1015.1
20260503212902 53 215 2.0 2.0 0.00 0.00 0.00 47 1015.3
20260503212400 53 103 3.0 6.0 0.00 0.00 0.00 47 1015.3
20260503211857 52 266 0.0 0.0 0.00 0.00 0.00 47 1015.2
20260503211354 52 217 1.0 2.0 0.00 0.00 0.00 48 1015.4
20260503210849 52 268 2.0 2.0 0.00 0.00 0.00 47 1015.5
20260503210347 52 266 4.0 7.0 0.00 0.00 0.00 47 1015.4
20260503205841 54 256 2.0 2.0 0.00 0.00 0.00 45 1015.5
20260503205338 53 184 2.0 3.0 0.00 0.00 0.00 46 1015.4
20260503204835 52 253 3.0 5.0 0.00 0.00 0.00 47 1015.3
20260503204332 52 208 1.0 2.0 0.00 0.00 0.00 48 1015.6
20260503203829 52 256 5.0 8.0 0.00 0.00 0.00 47 1015.5
20260503203327 53 246 3.0 3.0 0.00 0.00 0.00 46 1015.3
20260503202824 53 248 3.0 5.0 0.00 0.00 0.00 47 1015.8
20260503202322 52 275 1.0 1.0 0.00 0.00 0.00 47 1015.5
20260503201820 52 289 2.0 3.0 0.00 0.00 0.00 47 1015.5
20260503201316 53 190 2.0 3.0 0.00 0.00 0.00 46 1015.8
20260503200814 53 262 3.0 5.0 0.00 0.00 0.00 47 1015.7
20260503200309 51 199 4.0 5.0 0.00 0.00 0.00 47 1015.6
20260503195807 52 298 2.0 2.0 0.00 0.00 0.00 47 1015.7
20260503195304 52 357 2.0 3.0 0.00 0.00 0.00 47 1015.7
20260503194801 53 276 1.0 2.0 0.00 0.00 0.00 49 1015.9
20260503194256 54 226 3.0 3.0 0.00 0.00 0.00 46 1015.8
20260503193753 53 211 2.0 3.0 0.00 0.00 0.00 46 1016.0
20260503193249 53 266 3.0 3.0 0.00 0.00 0.00 45 1016.2
20260503192745 55 143 3.0 5.0 0.00 0.00 0.00 45 1016.1
20260503192240 54 269 4.0 7.0 0.00 0.00 0.00 44 1016.4
20260503191737 52 278 2.0 2.0 0.00 0.00 0.00 49 1016.1
20260503191234 51 295 2.0 3.0 0.00 0.00 0.00 48 1016.2
20260503190731 52 280 2.0 3.0 0.00 0.00 0.00 45 1016.2
20260503190228 52 138 2.0 6.0 0.00 0.00 0.00 46 1016.5
20260503185725 51 237 1.0 2.0 0.00 0.00 0.00 48 1016.4
20260503185220 51 238 2.0 3.0 0.00 0.00 0.00 49 1016.4
20260503184715 51 301 0.0 1.0 0.00 0.00 0.00 49 1016.7
20260503184212 51 314 3.0 5.0 0.00 0.00 0.00 47 1016.4
20260503183708 53 250 5.0 7.0 0.00 0.00 0.00 46 1016.7
20260503183206 52 193 3.0 6.0 0.00 0.00 0.00 50 1016.8
20260503182704 51 244 3.0 5.0 0.00 0.00 0.00 46 1016.8
20260503182202 52 280 3.0 3.0 0.00 0.00 0.00 47 1016.7
20260503181658 52 253 5.0 7.0 0.00 0.00 0.00 46 1016.8
20260503181155 51 182 4.0 6.0 0.00 0.00 0.00 48 1016.7
20260503180652 52 320 2.0 2.0 0.00 0.00 0.00 50 1017.0
20260503180150 52 11 2.0 3.0 0.00 0.00 0.00 49 1016.8
20260503175647 51 270 4.0 5.0 0.00 0.00 0.00 48 1017.1
20260503175144 51 315 3.0 5.0 0.00 0.00 0.00 47 1016.9
20260503174640 51 133 1.0 2.0 0.00 0.00 0.00 47 1017.0
20260503174138 51 310 3.0 3.0 0.00 0.00 0.00 50 1017.0
20260503173632 50 337 5.0 8.0 0.00 0.00 0.00 48 1016.8
20260503173129 50 288 2.0 3.0 0.00 0.00 0.00 50 1017.1
20260503172626 51 320 5.0 7.0 0.00 0.00 0.00 49 1017.1
20260503172124 51 258 4.0 6.0 0.00 0.00 0.00 48 1017.1
20260503171620 50 284 3.0 5.0 0.00 0.00 0.00 51 1017.1
20260503171117 50 144 3.0 5.0 0.00 0.00 0.00 51 1017.4
20260503170615 50 274 4.0 6.0 0.00 0.00 0.00 51 1017.2
20260503170111 51 347 5.0 7.0 0.00 0.00 0.00 50 1017.1
20260503151006 45 244 4.0 6.0 0.00 0.00 0.00 57 1017.7
20260503150503 45 321 5.0 6.0 0.00 0.00 0.00 60 1017.8
20260503131356 40 284 2.0 2.0 0.00 0.00 0.00 76 1017.7
20260503130853 40 291 5.0 6.0 0.00 0.00 0.00 76 1017.8
20260503130350 39 289 0.0 1.0 0.00 0.00 0.00 77 1017.8
20260503110744 30 255 0.0 1.0 0.00 0.00 0.00 94 1017.0
20260503110241 30 269 0.0 0.0 0.00 0.00 0.00 94 1017.0
20260503100207 29 261 1.0 1.0 0.00 0.00 0.00 95 1016.6
20260503090132 30 267 0.0 0.0 0.00 0.00 0.00 93 1016.2
20260503081602 30 256 0.0 1.0 0.00 0.00 0.00 93 1015.9
20260503081059 30 262 0.0 0.0 0.00 0.00 0.00 92 1016.1
20260503080555 30 267 0.0 0.0 0.00 0.00 0.00 92 1016.0
20260503072529 31 253 1.0 1.0 0.00 0.00 0.00 90 1015.6
20260503072026 31 256 0.0 1.0 0.00 0.00 0.00 90 1015.7
20260503071523 31 255 0.0 0.0 0.00 0.00 0.00 89 1015.8
20260503071020 32 249 1.0 2.0 0.00 0.00 0.00 89 1015.6
20260503070516 32 270 1.0 2.0 0.00 0.00 0.00 89 1015.7
20260503054940 33 266 1.0 1.0 0.00 0.00 0.00 88 1016.0
20260503054436 32 249 1.0 1.0 0.00 0.00 0.00 88 1015.8
20260503053934 33 253 0.0 0.0 0.00 0.00 0.00 88 1015.5
20260503053432 33 259 0.0 0.0 0.00 0.00 0.00 88 1015.8
20260503052928 33 211 3.0 3.0 0.00 0.00 0.00 88 1015.7
20260503052425 33 258 0.0 0.0 0.00 0.00 0.00 88 1015.8
20260503051921 33 254 0.0 1.0 0.00 0.00 0.00 88 1015.9
20260503051417 33 267 1.0 2.0 0.00 0.00 0.00 88 1015.9
20260503050915 33 257 0.0 1.0 0.00 0.00 0.00 88 1016.0
20260503050410 33 257 1.0 1.0 0.00 0.00 0.00 88 1015.9
20260503045908 33 286 1.0 1.0 0.00 0.00 0.00 88 1016.0
20260503045406 33 261 0.0 1.0 0.00 0.00 0.00 89 1016.1
20260503044902 33 261 0.0 0.0 0.00 0.00 0.00 89 1016.2
20260503044359 33 259 0.0 0.0 0.00 0.00 0.00 89 1016.0
20260503043856 33 265 0.0 0.0 0.00 0.00 0.00 89 1016.0
20260503043353 33 257 0.0 0.0 0.00 0.00 0.00 88 1016.4
20260503042849 33 256 0.0 0.0 0.00 0.00 0.00 87 1015.9
20260503042346 33 256 0.0 0.0 0.00 0.00 0.00 86 1016.1